Location: Oberkirch
(48.5323°N, 8.0787°E)
Time: 10:58:37
(UTC+00:00)

Explorer 11/Cluster Stage 4 - Pass Details

Date: 27 February 2026
Orbit: 464 x 1176 km, 28.8° (Epoch: 4 March)

Event Time Altitude Azimuth Distance (km) Brightness Sun altitude
Rises 09:27:18 0° 225° (SW) 3,727 10.1 26.1°
Reaches altitude 10° 09:33:42 10° 182° (S) 2,527 10.1 26.7°
Maximum altitude 09:33:54 10° 180° (S) 2,518 10.2 26.8°
Drops below altitude 10° 09:34:03 10° 178° (S) 2,512 10.2 26.8°
Sets 09:39:44 0° 132° (SE) 3,180 10.9 27.3°
